When you browse on this site, cookies collect data to enhance your experience and personalize the content and advertising you see.
Visit our Privacy Policy to learn more. By continuing to use the site, you agree to this use of cookies and data.

Hourly Weather La Serena

Today, 9 July, Thursday

Time Temperature Precipitation Wind Pressure Humidity
00:00 +15°C° 0 mm 2 mps 763 mmHg 57%
01:00 +15°C° 0 mm 2 mps 763 mmHg 54%
02:00 +15°C° 0 mm 2 mps 763 mmHg 53%
03:00 +15°C° 0 mm 2 mps 763 mmHg 52%
04:00 +14°C° 0 mm 2 mps 763 mmHg 51%
05:00 +14°C° 0 mm 2 mps 763 mmHg 51%
06:00 +14°C° 0 mm 2 mps 763 mmHg 51%
07:00 +14°C° 0 mm 2 mps 763 mmHg 51%
08:00 +16°C° 0 mm 2 mps 763 mmHg 44%
09:00 +19°C° 0 mm 2 mps 763 mmHg 36%
10:00 +21°C° 0 mm 2 mps 763 mmHg 29%
11:00 +22°C° 0 mm 3 mps 762 mmHg 29%
12:00 +24°C° 0 mm 3 mps 762 mmHg 29%
13:00 +23°C° 0 mm 4 mps 761 mmHg 28%
14:00 +24°C° 0 mm 3 mps 761 mmHg 32%
15:00 +22°C° 0 mm 3 mps 761 mmHg 36%
16:00 +22°C° 0 mm 3 mps 761 mmHg 41%
17:00 +21°C° 0 mm 3 mps 761 mmHg 43%
18:00 +20°C° 0 mm 3 mps 761 mmHg 45%
19:00 +19°C° 0 mm 3 mps 761 mmHg 47%
20:00 +18°C° 0 mm 3 mps 761 mmHg 50%
21:00 +17°C° 0 mm 3 mps 761 mmHg 52%
22:00 +17°C° 0 mm 2 mps 761 mmHg 55%
23:00 +17°C° 0 mm 2 mps 761 mmHg 55%

Tomorrow, 10 July, Friday

Time Temperature Precipitation Wind Pressure Humidity
00:00 +16°C° 0 mm 3 mps 761 mmHg 55%
01:00 +16°C° 0 mm 3 mps 761 mmHg 55%
02:00 +16°C° 0 mm 3 mps 761 mmHg 54%
03:00 +15°C° 0 mm 2 mps 761 mmHg 53%
04:00 +15°C° 0 mm 2 mps 761 mmHg 52%
05:00 +15°C° 0 mm 2 mps 761 mmHg 53%
06:00 +15°C° 0 mm 2 mps 761 mmHg 54%
07:00 +14°C° 0 mm 2 mps 761 mmHg 55%
08:00 +17°C° 0 mm 2 mps 762 mmHg 49%
09:00 +19°C° 0 mm 2 mps 762 mmHg 43%
10:00 +21°C° 0 mm 3 mps 762 mmHg 37%
11:00 +22°C° 0 mm 3 mps 762 mmHg 36%
12:00 +24°C° 0 mm 3 mps 761 mmHg 36%
13:00 +24°C° 0 mm 3 mps 761 mmHg 36%
14:00 +24°C° 0 mm 3 mps 761 mmHg 40%
15:00 +22°C° 0 mm 3 mps 761 mmHg 43%
16:00 +21°C° 0 mm 3 mps 761 mmHg 47%
17:00 +20°C° 0 mm 2 mps 761 mmHg 51%
18:00 +19°C° 0 mm 2 mps 761 mmHg 55%
19:00 +18°C° 0 mm 2 mps 762 mmHg 59%
20:00 +18°C° 0 mm 2 mps 762 mmHg 60%
21:00 +17°C° 0 mm 2 mps 762 mmHg 60%
22:00 +17°C° 0 mm 2 mps 762 mmHg 61%
23:00 +17°C° 0 mm 2 mps 762 mmHg 62%

Day after tomorrow, 11 July, Saturday

Time Temperature Precipitation Wind Pressure Humidity
00:00 +16°C° 0 mm 2 mps 762 mmHg 63%
01:00 +16°C° 0 mm 2 mps 762 mmHg 64%
02:00 +16°C° 0 mm 2 mps 761 mmHg 64%
03:00 +15°C° 0 mm 2 mps 761 mmHg 64%
04:00 +15°C° 0 mm 1 mps 761 mmHg 64%
05:00 +15°C° 0 mm 1 mps 761 mmHg 65%
06:00 +15°C° 0 mm 1 mps 761 mmHg 67%
07:00 +14°C° 0 mm 1 mps 761 mmHg 68%
08:00 +18°C° 0 mm 1 mps 761 mmHg 58%
09:00 +20°C° 0 mm 1 mps 761 mmHg 48%
10:00 +23°C° 0 mm 1 mps 761 mmHg 38%
11:00 +23°C° 0 mm 2 mps 760 mmHg 40%
12:00 +24°C° 0 mm 2 mps 760 mmHg 41%
13:00 +24°C° 0 mm 3 mps 760 mmHg 42%
14:00 +24°C° 0 mm 3 mps 760 mmHg 44%
15:00 +23°C° 0 mm 2 mps 759 mmHg 46%
16:00 +23°C° 0 mm 2 mps 759 mmHg 47%
17:00 +21°C° 0 mm 2 mps 760 mmHg 50%
18:00 +20°C° 0 mm 2 mps 760 mmHg 53%
19:00 +19°C° 0 mm 2 mps 760 mmHg 56%
20:00 +19°C° 0 mm 2 mps 760 mmHg 57%
21:00 +19°C° 0 mm 1 mps 760 mmHg 58%
22:00 +19°C° 0 mm 1 mps 760 mmHg 59%
23:00 +18°C° 0 mm 1 mps 760 mmHg 58%

12 July, Sunday

Time Temperature Precipitation Wind Pressure Humidity
00:00 +18°C° 0 mm 1 mps 760 mmHg 57%
01:00 +18°C° 0 mm 1 mps 760 mmHg 56%
02:00 +18°C° 0 mm 1 mps 760 mmHg 57%
03:00 +16°C° 0 mm 1 mps 760 mmHg 58%
04:00 +16°C° 0 mm 1 mps 759 mmHg 59%
05:00 +16°C° 0 mm 1 mps 759 mmHg 56%
06:00 +16°C° 0 mm 1 mps 759 mmHg 53%
07:00 +16°C° 0 mm 1 mps 759 mmHg 50%
08:00 +19°C° 0 mm 1 mps 759 mmHg 45%
09:00 +22°C° 0 mm 1 mps 759 mmHg 41%
10:00 +24°C° 0 mm 1 mps 759 mmHg 36%
11:00 +25°C° 0 mm 1 mps 759 mmHg 37%
12:00 +25°C° 0 mm 2 mps 758 mmHg 39%
13:00 +25°C° 0 mm 2 mps 758 mmHg 40%
14:00 +25°C° 0 mm 2 mps 758 mmHg 42%
15:00 +25°C° 0 mm 1 mps 758 mmHg 44%
16:00 +24°C° 0 mm 1 mps 758 mmHg 45%
17:00 +23°C° 0 mm 1 mps 758 mmHg 51%
18:00 +22°C° 0 mm 1 mps 759 mmHg 56%
19:00 +20°C° 0 mm 1 mps 759 mmHg 61%
20:00 +20°C° 0 mm 1 mps 759 mmHg 63%
21:00 +19°C° 0 mm 1 mps 759 mmHg 65%
22:00 +18°C° 0 mm 2 mps 760 mmHg 67%
23:00 +17°C° 0 mm 2 mps 760 mmHg 70%

13 July, Monday

Time Temperature Precipitation Wind Pressure Humidity
00:00 +17°C° 0 mm 2 mps 760 mmHg 72%
01:00 +16°C° 0 mm 3 mps 760 mmHg 74%
02:00 +16°C° 0 mm 3 mps 760 mmHg 77%
03:00 +15°C° 0 mm 2 mps 760 mmHg 80%
04:00 +15°C° 0 mm 2 mps 760 mmHg 83%
05:00 +14°C° 0 mm 2 mps 760 mmHg 84%
06:00 +14°C° 0 mm 2 mps 760 mmHg 85%
07:00 +14°C° 0 mm 2 mps 761 mmHg 86%
08:00 +15°C° 0 mm 2 mps 761 mmHg 82%
09:00 +16°C° 0 mm 2 mps 761 mmHg 78%
10:00 +17°C° 0 mm 2 mps 761 mmHg 74%
11:00 +17°C° 0 mm 2 mps 761 mmHg 75%
12:00 +17°C° 0 mm 2 mps 760 mmHg 75%
13:00 +18°C° 0 mm 2 mps 760 mmHg 75%
14:00 +17°C° 0 mm 2 mps 760 mmHg 76%
15:00 +17°C° 0 mm 2 mps 760 mmHg 77%
16:00 +17°C° 0 mm 2 mps 760 mmHg 79%
17:00 +18°C° 0 mm 1 mps 760 mmHg 82%
18:00 +16°C° 0 mm 1 mps 761 mmHg 85%
19:00 +15°C° 0 mm 1 mps 761 mmHg 88%
20:00 +15°C° 0 mm 1 mps 761 mmHg 88%
21:00 +15°C° 0 mm 1 mps 761 mmHg 89%
22:00 +15°C° 0 mm 1 mps 762 mmHg 89%
23:00 +15°C° 0 mm 1 mps 762 mmHg 89%

14 July, Tuesday

Time Temperature Precipitation Wind Pressure Humidity
00:00 +15°C° 0 mm 1 mps 762 mmHg 88%
01:00 +15°C° 0 mm 1 mps 762 mmHg 88%
02:00 +15°C° 0 mm 1 mps 761 mmHg 87%
03:00 +15°C° 0 mm 1 mps 761 mmHg 86%
04:00 +14°C° 0 mm 0 mps 761 mmHg 86%
05:00 +13°C° 0 mm 0 mps 761 mmHg 86%
06:00 +13°C° 0 mm 0 mps 761 mmHg 86%
07:00 +13°C° 0 mm 0 mps 762 mmHg 87%
08:00 +15°C° 0 mm 1 mps 762 mmHg 82%
09:00 +16°C° 0 mm 1 mps 762 mmHg 77%
10:00 +18°C° 0 mm 1 mps 762 mmHg 73%
11:00 +17°C° 0 mm 2 mps 762 mmHg 72%
12:00 +18°C° 0 mm 2 mps 761 mmHg 71%
13:00 +18°C° 0 mm 2 mps 761 mmHg 69%
14:00 +18°C° 0 mm 2 mps 761 mmHg 72%
15:00 +17°C° 0 mm 2 mps 761 mmHg 76%
16:00 +17°C° 0 mm 2 mps 761 mmHg 79%
17:00 +16°C° 0 mm 2 mps 761 mmHg 80%
18:00 +16°C° 0 mm 1 mps 761 mmHg 82%
19:00 +16°C° 0 mm 1 mps 761 mmHg 83%
20:00 +15°C° 0 mm 1 mps 761 mmHg 84%
21:00 +15°C° 0 mm 1 mps 761 mmHg 84%
22:00 +15°C° 0 mm 1 mps 762 mmHg 85%
23:00 +15°C° 0 mm 1 mps 761 mmHg 85%
Show more